"Pseudo-MPEC" for P22jXrl

Created 2026 Jan 23 5:35:15 UT using Find_Orb

Click here for an explanation of pseudo-MPECs

 
 Astrometry: 
     P22jXrl* C2026 01 09.39221508 18 26.063+65 30 37.34   ~19DZ 20.35wXNEOCPF52
     P22jXrl  C2026 01 09.40433308 18 27.127+65 27 50.80   ~19DZ 20.17wXNEOCPF52
     P22jXrl  C2026 01 09.41659108 18 28.162+65 24 58.55   ~19DZx20.03wXNEOCPF52
     P22jXrl  C2026 01 09.42889608 18 29.096+65 22 10.23   ~19DZ 20.27wXNEOCPF52

Station data:
(F52) Pan-STARRS 2, Haleakala  (N20.707382 W156.255910)  US/Hawaii.
   Observers J. Herman, T. Lowe, P. Minguez, A. Schultz, I. Smith. Measurers
   K. Chambers, T. de Boer, J. Fairlamb, H. Gao, M. Huber, C.-C. Lin, E.
   Magnier, Y. Ramanjooloo, R. Wainscoat, R. Weryk. 1.8-m Ritchey-Chrétien +
   CCD.

Orbital elements:  P22jXrl
   Perihelion 2026 Jan 11.934934 +/- 97.9 TT = 22:26:18.3 (JD 2461052.434934)
Epoch 2026 Jan  9.0 TT = JDT 2461049.5   Earth MOID: 0.0415      AutoNEOCP
M 358.518347697 +/- 47              (J2000 ecliptic)
n   0.504833187 +/- 0.854           Peri.  174.249191 +/- 120
a   1.562083041 +/- 1.76            Node   297.046804 +/- 13
e   0.34443435 +/- 0.726            Incl.   14.921032 +/- 36
P   1.952/713.093d         H 24.69  G  0.15   U 12.6
q 1.024047973 +/- 0.0287    Q 2.100118109 +/- 3.5
3 of 4 observations 2026 Jan. 9 (52.8 min); mean residual 0".00
Residuals in arcseconds: 
260109 F52  .00   .00     260109 F52( .15+  2.8-)   
260109 F52  .00   .00     260109 F52  .00   .00     

Ephemerides (geocentric):
Date (UTC) HH   RA             Dec           delta  r     elong  mag " sig PA
---- --------  ------------   ------------  ------ ------ -----  --- --------
2026 01 23 06  08 37 23.300   -16 07 39.07  .05599 1.0302 144.1 19.9  58d 179
2026 01 23 07  08 37 24.400   -16 17 34.80  .05614 1.0302 144.0 19.9  58d 179
2026 01 23 08  08 37 25.496   -16 27 27.21  .05629 1.0303 143.8 19.9  58d 179
2026 01 23 09  08 37 26.586   -16 37 16.31  .05644 1.0303 143.7 19.9  58d 179
2026 01 23 10  08 37 27.673   -16 47 02.13  .05659 1.0304 143.5 20.0  57d 179
2026 01 23 11  08 37 28.754   -16 56 44.68  .05674 1.0304 143.4 20.0  57d 179
2026 01 23 12  08 37 29.831   -17 06 23.97  .05689 1.0305 143.2 20.0  57d 179
2026 01 23 13  08 37 30.904   -17 16 00.02  .05704 1.0305 143.1 20.0  57d 179
2026 01 23 14  08 37 31.972   -17 25 32.84  .05720 1.0306 142.9 20.0  57d 179
2026 01 23 15  08 37 33.036   -17 35 02.46  .05735 1.0306 142.8 20.0  57d 179
2026 01 23 16  08 37 34.096   -17 44 28.88  .05750 1.0307 142.7 20.0  57d 179
2026 01 23 17  08 37 35.151   -17 53 52.13  .05766 1.0307 142.5 20.0  57d 179
2026 01 23 18  08 37 36.202   -18 03 12.21  .05781 1.0307 142.4 20.0  57d 179
2026 01 23 19  08 37 37.249   -18 12 29.15  .05797 1.0308 142.2 20.0  57d 179
2026 01 23 20  08 37 38.291   -18 21 42.96  .05812 1.0308 142.1 20.1  57d 179
2026 01 23 21  08 37 39.329   -18 30 53.65  .05828 1.0309 142.0 20.1  56d 179
2026 01 23 22  08 37 40.363   -18 40 01.25  .05844 1.0309 141.8 20.1  56d 179
2026 01 23 23  08 37 41.393   -18 49 05.77  .05859 1.0310 141.7 20.1  56d 179
2026 01 24 00  08 37 42.419   -18 58 07.22  .05875 1.0310 141.5 20.1  56d 179
2026 01 24 01  08 37 43.441   -19 07 05.63  .05891 1.0311 141.4 20.1  56d 179
2026 01 24 02  08 37 44.459   -19 16 01.00  .05907 1.0311 141.3 20.1  56d 179
2026 01 24 03  08 37 45.473   -19 24 53.35  .05923 1.0312 141.1 20.1  56d 179
2026 01 24 04  08 37 46.483   -19 33 42.70  .05939 1.0312 141.0 20.1  56d 179
2026 01 24 05  08 37 47.489   -19 42 29.07  .05954 1.0313 140.9 20.1  56d 179
2026 01 24 06  08 37 48.491   -19 51 12.47  .05970 1.0313 140.7 20.1  56d 179
2026 01 24 07  08 37 49.490   -19 59 52.92  .05987 1.0314 140.6 20.2  56d 179
2026 01 24 08  08 37 50.484   -20 08 30.43  .06003 1.0314 140.5 20.2  56d 179
2026 01 24 09  08 37 51.475   -20 17 05.02  .06019 1.0315 140.3 20.2  55d 179
2026 01 24 10  08 37 52.462   -20 25 36.71  .06035 1.0315 140.2 20.2  55d 179
2026 01 24 11  08 37 53.446   -20 34 05.50  .06051 1.0316 140.1 20.2  55d 179
2026 01 24 12  08 37 54.425   -20 42 31.43  .06067 1.0316 140.0 20.2  55d 179
2026 01 24 13  08 37 55.401   -20 50 54.50  .06084 1.0317 139.8 20.2  55d 179
2026 01 24 14  08 37 56.374   -20 59 14.73  .06100 1.0317 139.7 20.2  55d 179
2026 01 24 15  08 37 57.342   -21 07 32.14  .06116 1.0318 139.6 20.2  55d 179
2026 01 24 16  08 37 58.308   -21 15 46.74  .06133 1.0318 139.5 20.2  55d 179
2026 01 24 17  08 37 59.269   -21 23 58.54  .06149 1.0319 139.3 20.2  55d 179
2026 01 24 18  08 38 00.228   -21 32 07.57  .06166 1.0319 139.2 20.3  55d 179
2026 01 24 19  08 38 01.182   -21 40 13.84  .06182 1.0320 139.1 20.3  55d 179
2026 01 24 20  08 38 02.134   -21 48 17.36  .06199 1.0320 139.0 20.3  55d 179
2026 01 24 21  08 38 03.082   -21 56 18.16  .06215 1.0321 138.9 20.3  54d 179
2026 01 24 22  08 38 04.026   -22 04 16.24  .06232 1.0321 138.7 20.3  54d 179
2026 01 24 23  08 38 04.967   -22 12 11.63  .06248 1.0322 138.6 20.3  54d 179
2026 01 25 00  08 38 05.905   -22 20 04.33  .06265 1.0322 138.5 20.3  54d 179
2026 01 25 01  08 38 06.840   -22 27 54.36  .06282 1.0323 138.4 20.3  54d 179
2026 01 25 02  08 38 07.771   -22 35 41.75  .06299 1.0323 138.3 20.3  54d 179
2026 01 25 03  08 38 08.699   -22 43 26.50  .06315 1.0324 138.1 20.3  54d 179
2026 01 25 04  08 38 09.624   -22 51 08.63  .06332 1.0324 138.0 20.3  54d 179
2026 01 25 05  08 38 10.546   -22 58 48.16  .06349 1.0325 137.9 20.4  54d 179